Weather History for Huntingburg, IN

Change the Weather History Date:

Wednesday, November 21, 2012

  Actual Average Record
Temperature  
Mean Temperature 50 °F -  
Max Temperature 60 °F 51 °F 68 °F (2003)
Min Temperature 41 °F 35 °F 19 °F (2008)
Degree Days  
Heating Degree Days 14    
Moisture  
Dew Point 42 °F    
Average Humidity 75    
Maximum Humidity 87    
Minimum Humidity 59    
Precipitation  
Precipitation 0.00 in - - ()
Sea Level Pressure  
Sea Level Pressure 30.21 in    
Wind  
Wind Speed 5 mph (North)    
Max Wind Speed 10 mph    
Max Gust Speed -    
Visibility 6 miles    
Events      
Averages and records for this station are not official NWS values.
T = Trace of Precipitation, MM = Missing Value Source: NWS Daily Summary

Daily Weather History Graph

Daily Weather History Graph

Search for Another Location

Airport:

Trip Planner

Search our weather history database for the weather conditions in past years. The results will help you decide how hot, cold, wet, or windy it might be!

Date:

Astronomy

Nov. 21, 2012 Rise Set
Actual Time 7:35 AM EST 5:31 PM EST
Civil Twilight 7:07 AM EST 5:59 PM EST
Nautical Twilight 6:35 AM EST 6:32 PM EST
Astronomical Twilight 6:03 AM EST 7:03 PM EST
Moon 1:42 PM EST (11/21) 12:59 AM EST (11/21)
Length of Visible Light 10h 52m
Length of Day
9h 55m
First Quarter, 61% of the Moon is Illuminated
Nov 21
First Quarter
Nov 28
Full
Dec 6
Last Quarter
Dec 13
New
Dec 20
First Quarter

Hourly Weather History & Observations

Time (EST) Temp. Windchill Dew Point Humidity Pressure Visibility Wind Dir Wind Speed Gust Speed Precip Events Conditions
12:15 AM 51.8 °F - 42.8 °F 71% 30.16 in 10.0 mi North 4.6 mph - N/A   Overcast
12:35 AM 51.8 °F - 41.0 °F 67% 30.16 in 10.0 mi North 5.8 mph - N/A   Mostly Cloudy
12:55 AM 50.0 °F - 41.0 °F 71% 30.15 in 10.0 mi North 5.8 mph - N/A   Partly Cloudy
1:15 AM 50.0 °F - 41.0 °F 71% 30.16 in 10.0 mi North 5.8 mph - N/A   Mostly Cloudy
1:35 AM 50.0 °F - 41.0 °F 71% 30.15 in 10.0 mi NNW 4.6 mph - N/A   Overcast
1:55 AM 50.0 °F - 41.0 °F 71% 30.16 in 10.0 mi NNW 5.8 mph - N/A   Overcast
2:15 AM 50.0 °F - 41.0 °F 71% 30.16 in 10.0 mi North 4.6 mph - N/A   Scattered Clouds
2:35 AM 48.2 °F - 41.0 °F 76% 30.16 in 10.0 mi North 4.6 mph - N/A   Clear
3:15 AM 48.2 °F - 39.2 °F 71% 30.17 in 10.0 mi North 5.8 mph - N/A   Clear
3:35 AM 48.2 °F - 39.2 °F 71% 30.17 in 10.0 mi North 5.8 mph - N/A   Clear
4:15 AM 46.4 °F 44.3 °F 39.2 °F 76% 30.18 in 8.0 mi NNW 4.6 mph - N/A   Clear
4:35 AM 46.4 °F 43.5 °F 39.2 °F 76% 30.18 in 8.0 mi NNW 5.8 mph - N/A   Clear
4:55 AM 44.6 °F 41.4 °F 39.2 °F 81% 30.19 in 8.0 mi North 5.8 mph - N/A   Clear
5:15 AM 44.6 °F 40.2 °F 39.2 °F 81% 30.20 in 7.0 mi North 8.1 mph - N/A   Clear
5:35 AM 44.6 °F 41.4 °F 39.2 °F 81% 30.21 in 7.0 mi North 5.8 mph - N/A   Clear
5:55 AM 44.6 °F 42.2 °F 39.2 °F 81% 30.21 in 6.0 mi North 4.6 mph - N/A   Clear
6:15 AM 44.6 °F 41.4 °F 39.2 °F 81% 30.21 in 6.0 mi North 5.8 mph - N/A   Clear
6:35 AM 42.8 °F 39.3 °F 37.4 °F 81% 30.21 in 5.0 mi North 5.8 mph - N/A   Clear
6:55 AM 42.8 °F 39.3 °F 39.2 °F 87% 30.22 in 5.0 mi North 5.8 mph - N/A   Clear
7:15 AM 42.8 °F 40.1 °F 37.4 °F 81% 30.23 in 4.0 mi North 4.6 mph - N/A   Clear
7:35 AM 42.8 °F 40.1 °F 37.4 °F 81% 30.23 in 2.5 mi North 4.6 mph - N/A   Clear
7:55 AM 41.0 °F 38.0 °F 37.4 °F 87% 30.24 in 1.8 mi North 4.6 mph - N/A   Clear
8:15 AM 41.0 °F 38.0 °F 37.4 °F 87% 30.25 in 1.5 mi North 4.6 mph - N/A   Clear
8:35 AM 42.8 °F 41.1 °F 39.2 °F 87% 30.25 in 1.8 mi NNW 3.5 mph - N/A   Clear
8:55 AM 44.6 °F - 41.0 °F 87% 30.26 in 2.0 mi Calm Calm - N/A   Clear
9:15 AM 46.4 °F 45.2 °F 42.8 °F 87% 30.26 in 3.0 mi North 3.5 mph - N/A   Clear
9:35 AM 48.2 °F - 44.6 °F 87% 30.25 in 3.0 mi NNE 4.6 mph - N/A   Clear
9:55 AM 51.8 °F - 44.6 °F 76% 30.25 in 4.0 mi North 4.6 mph - N/A   Clear
10:15 AM 51.8 °F - 44.6 °F 76% 30.25 in 4.0 mi NE 5.8 mph - N/A   Clear
10:35 AM 53.6 °F - 44.6 °F 72% 30.26 in 5.0 mi NNE 5.8 mph - N/A   Clear
10:55 AM 55.4 °F - 44.6 °F 67% 30.26 in 5.0 mi NNE 10.4 mph - N/A   Clear
11:15 AM 55.4 °F - 44.6 °F 67% 30.26 in 5.0 mi NNE 8.1 mph - N/A   Clear
11:55 AM 57.2 °F - 46.4 °F 67% 30.26 in 5.0 mi NNE 8.1 mph - N/A   Clear
12:15 PM 59.0 °F - 46.4 °F 63% 30.25 in 6.0 mi NW 9.2 mph - N/A   Clear
12:35 PM 60.8 °F - 46.4 °F 59% 30.25 in 7.0 mi NNW 4.6 mph - N/A   Clear
12:55 PM 60.8 °F - 46.4 °F 59% 30.24 in 9.0 mi North 4.6 mph - N/A   Clear
1:15 PM 60.8 °F - 46.4 °F 59% 30.24 in 8.0 mi NW 5.8 mph - N/A   Clear
1:35 PM 60.8 °F - 46.4 °F 59% 30.23 in 9.0 mi North 5.8 mph - N/A   Clear